EW0435 Weather Reports


Display with metric or nautical units.
time (UTC)temp
F
wind
direction
speed
MPH
gust
MPH
rain 1hr
in
rain 24hr
in
rain mn
in
humidity
%
barometer
mb
20260906021004 55 306 0.0 2.0 0.00 0.00 0.00 67 1020.9
20260906020503 56 309 0.0 3.0 0.00 0.00 0.00 66 1020.9
20260906020004 56 316 0.0 3.0 0.00 0.00 0.00 65 1020.9
20260906015005 57 311 1.0 3.0 0.00 0.00 0.00 63 1020.9
20260906014504 57 315 0.0 3.0 0.00 0.00 0.00 63 1020.9
20260906014004 57 312 0.0 3.0 0.00 0.00 0.00 64 1021.0
20260906013504 57 326 1.0 3.0 0.00 0.00 0.00 64 1021.0
20260906013004 57 316 1.0 6.0 0.00 0.00 0.00 63 1020.9
20260906012504 57 309 2.0 8.0 0.00 0.00 0.00 63 1020.9
20260906012004 57 304 2.0 8.0 0.00 0.00 0.00 63 1020.9
20260906011504 58 310 3.0 8.0 0.00 0.00 0.00 63 1020.9
20260906011004 58 307 2.0 12.0 0.00 0.00 0.00 63 1020.9
20260906010504 58 314 2.0 6.0 0.00 0.00 0.00 63 1020.9
20260906010004 58 304 1.0 3.0 0.00 0.00 0.00 62 1020.8
20260906005503 59 314 2.0 3.0 0.00 0.00 0.00 61 1020.8
20260906005005 59 319 1.0 7.0 0.00 0.00 0.00 61 1020.8
20260906004504 59 301 3.0 7.0 0.00 0.00 0.00 62 1020.7
20260906004004 59 312 3.0 8.0 0.00 0.00 0.00 62 1020.7
20260906003504 60 309 3.0 8.0 0.00 0.00 0.00 61 1020.6
20260906003004 60 319 2.0 12.0 0.00 0.00 0.00 61 1020.6
20260906002504 60 316 2.0 5.0 0.00 0.00 0.00 60 1020.6
20260906002004 60 315 3.0 7.0 0.00 0.00 0.00 61 1020.5
20260906001504 61 321 2.0 6.0 0.00 0.00 0.00 59 1020.5
20260906001004 61 309 3.0 9.0 0.00 0.00 0.00 58 1020.5
20260906000503 62 305 3.0 5.0 0.00 0.00 0.00 56 1020.5
20260906000004 63 310 2.0 5.0 0.00 0.00 0.00 53 1020.5
20260905235504 64 316 2.0 8.0 0.00 0.00 0.00 51 1020.4
20260905235004 65 314 2.0 7.0 0.00 0.00 0.00 49 1020.4
20260905234504 65 308 2.0 8.0 0.00 0.00 0.00 48 1020.4
20260905233504 66 311 2.0 10.0 0.00 0.00 0.00 46 1020.4
20260905233004 68 324 1.0 10.0 0.00 0.00 0.00 45 1020.3
20260905232504 69 332 0.0 3.0 0.00 0.00 0.00 43 1020.3
20260905232004 68 333 0.0 2.0 0.00 0.00 0.00 43 1020.2
20260905231504 68 342 0.0 3.0 0.00 0.00 0.00 43 1020.2
20260905231004 68 338 0.0 8.0 0.00 0.00 0.00 42 1020.2
20260905230504 69 334 0.0 2.0 0.00 0.00 0.00 39 1020.2
20260905230004 70 22 0.0 0.0 0.00 0.00 0.00 36 1020.2
20260905225504 70 50 0.0 0.0 0.00 0.00 0.00 37 1020.2
20260905225004 70 19 0.0 2.0 0.00 0.00 0.00 36 1020.3
20260905224504 70 42 0.0 0.0 0.00 0.00 0.00 37 1020.2
20260905224004 69 18 0.0 3.0 0.00 0.00 0.00 38 1020.3
20260905223504 68 135 0.0 0.0 0.00 0.00 0.00 39 1020.3
20260905223004 68 115 0.0 0.0 0.00 0.00 0.00 38 1020.4
20260905222504 68 76 0.0 0.0 0.00 0.00 0.00 40 1020.4
20260905222004 68 75 0.0 0.0 0.00 0.00 0.00 39 1020.3
20260905221504 67 72 0.0 0.0 0.00 0.00 0.00 41 1020.4
20260905221004 67 90 0.0 1.0 0.00 0.00 0.00 40 1020.4
20260905220004 68 84 0.0 2.0 0.00 0.00 0.00 39 1020.3
20260905215504 68 42 0.0 0.0 0.00 0.00 0.00 41 1020.4
20260905215004 67 54 0.0 1.0 0.00 0.00 0.00 41 1020.4
20260905214503 67 76 0.0 1.0 0.00 0.00 0.00 43 1020.4
20260905213503 68 124 1.0 3.0 0.00 0.00 0.00 38 1020.5
20260905212504 69 68 0.0 0.0 0.00 0.00 0.00 41 1020.5
20260905212004 68 17 0.0 2.0 0.00 0.00 0.00 41 1020.6
20260905211005 69 110 0.0 2.0 0.00 0.00 0.00 42 1020.7
20260905210504 67 69 0.0 0.0 0.00 0.00 0.00 42 1020.7
20260905210004 67 40 0.0 1.0 0.00 0.00 0.00 42 1020.7
20260905205503 67 69 0.0 1.0 0.00 0.00 0.00 45 1020.7
20260905205004 68 61 0.0 1.0 0.00 0.00 0.00 42 1020.8
20260905204504 67 30 0.0 0.0 0.00 0.00 0.00 45 1020.8
20260905204004 64 117 0.0 0.0 0.00 0.00 0.00 47 1020.8
20260905203504 64 103 0.0 0.0 0.00 0.00 0.00 47 1020.9
20260905203004 64 97 0.0 2.0 0.00 0.00 0.00 49 1020.9
20260905202505 64 98 0.0 2.0 0.00 0.00 0.00 49 1020.9
20260905202004 64 104 0.0 2.0 0.00 0.00 0.00 49 1020.9
20260905201504 63 60 0.0 2.0 0.00 0.00 0.00 52 1020.9
20260905201004 64 130 1.0 3.0 0.00 0.00 0.00 47 1021.0
20260905200503 64 80 0.0 2.0 0.00 0.00 0.00 50 1021.0
20260905195504 63 90 1.0 3.0 0.00 0.00 0.00 52 1021.2
20260905194504 63 135 0.0 3.0 0.00 0.00 0.00 51 1021.3
20260905194004 62 83 0.0 3.0 0.00 0.00 0.00 52 1021.3
20260905193503 63 139 0.0 3.0 0.00 0.00 0.00 52 1021.3
20260905193004 63 126 1.0 3.0 0.00 0.00 0.00 51 1021.3
20260905192504 64 168 1.0 3.0 0.00 0.00 0.00 49 1021.3
20260905192004 64 86 0.0 1.0 0.00 0.00 0.00 52 1021.4
20260905191504 63 94 1.0 3.0 0.00 0.00 0.00 52 1021.4
20260905191004 64 91 0.0 0.0 0.00 0.00 0.00 53 1021.4
20260905190504 63 62 1.0 3.0 0.00 0.00 0.00 54 1021.5
20260905190005 63 99 0.0 0.0 0.00 0.00 0.00 57 1021.5
20260905185003 62 135 1.0 3.0 0.00 0.00 0.00 53 1021.6
20260905184504 64 59 0.0 0.0 0.00 0.00 0.00 55 1021.6
20260905184004 62 32 0.0 0.0 0.00 0.00 0.00 53 1021.6
20260905183504 62 77 0.0 1.0 0.00 0.00 0.00 55 1021.7
20260905183004 61 61 0.0 2.0 0.00 0.00 0.00 57 1021.7
20260905182504 61 124 0.0 2.0 0.00 0.00 0.00 56 1021.7
20260905182004 61 61 0.0 0.0 0.00 0.00 0.00 60 1021.8
20260905181504 62 106 0.0 1.0 0.00 0.00 0.00 58 1021.8
20260905181004 61 96 0.0 0.0 0.00 0.00 0.00 61 1021.9
20260905180504 61 88 0.0 0.0 0.00 0.00 0.00 59 1021.8
20260905180004 61 93 0.0 0.0 0.00 0.00 0.00 59 1021.9
20260905175504 60 69 0.0 2.0 0.00 0.00 0.00 61 1021.9
20260905175004 60 124 0.0 0.0 0.00 0.00 0.00 58 1022.0
20260905174503 61 98 0.0 0.0 0.00 0.00 0.00 61 1021.9
20260905174004 60 77 0.0 0.0 0.00 0.00 0.00 62 1021.9
20260905173504 60 91 0.0 2.0 0.00 0.00 0.00 63 1021.9
20260905173004 59 123 0.0 0.0 0.00 0.00 0.00 61 1021.9
20260905172004 59 92 0.0 0.0 0.00 0.00 0.00 62 1021.9
20260905171004 61 101 0.0 1.0 0.00 0.00 0.00 59 1021.9
20260905165504 59 123 0.0 0.0 0.00 0.00 0.00 62 1021.8
20260905164004 58 92 0.0 0.0 0.00 0.00 0.00 65 1021.8
20260905163504 58 80 0.0 0.0 0.00 0.00 0.00 66 1021.8
20260905163004 58 80 0.0 0.0 0.00 0.00 0.00 69 1021.8
20260905162504 57 78 0.0 0.0 0.00 0.00 0.00 69 1021.8
20260905162004 57 76 0.0 0.0 0.00 0.00 0.00 68 1021.7
20260905161504 57 75 0.0 0.0 0.00 0.00 0.00 69 1021.7
20260905161004 56 75 0.0 0.0 0.00 0.00 0.00 70 1021.7
20260905160504 56 74 0.0 0.0 0.00 0.00 0.00 70 1021.7
20260905160004 56 69 0.0 0.0 0.00 0.00 0.00 70 1021.7
20260905155504 57 67 0.0 0.0 0.00 0.00 0.00 68 1021.7
20260905155004 58 45 0.0 0.0 0.00 0.00 0.00 67 1021.7
20260905154503 58 5 0.0 0.0 0.00 0.00 0.00 67 1021.6
20260905154004 58 275 0.0 0.0 0.00 0.00 0.00 66 1021.7
20260905153504 57 275 0.0 0.0 0.00 0.00 0.00 67 1021.7
20260905153004 56 275 0.0 0.0 0.00 0.00 0.00 70 1021.7
20260905152004 53 275 0.0 0.0 0.00 0.00 0.00 77 1021.8
20260905151503 52 275 0.0 0.0 0.00 0.00 0.00 78 1021.8
20260905150504 51 275 0.0 0.0 0.00 0.00 0.00 80 1021.9
20260905150004 51 273 0.0 0.0 0.00 0.00 0.00 79 1021.9
20260905144504 50 272 0.0 0.0 0.00 0.00 0.00 80 1021.8
20260905144004 49 272 0.0 0.0 0.00 0.00 0.00 81 1021.8
20260905143504 49 272 0.0 0.0 0.00 0.00 0.00 80 1021.8
20260905143004 49 272 0.0 0.0 0.00 0.00 0.00 81 1021.8
20260905142503 49 272 0.0 0.0 0.00 0.00 0.00 80 1021.7
20260905142004 48 272 0.0 0.0 0.00 0.00 0.00 80 1021.6
20260905141504 48 272 0.0 0.0 0.00 0.00 0.00 81 1021.6
20260905141004 47 272 0.0 0.0 0.00 0.00 0.00 83 1021.6
20260905140504 46 272 0.0 0.0 0.00 0.00 0.00 82 1021.5
20260905140004 46 272 0.0 0.0 0.00 0.00 0.00 82 1021.5
20260905135504 46 223 0.0 0.0 0.00 0.00 0.00 83 1021.4
20260905135004 45 220 0.0 0.0 0.00 0.00 0.00 86 1021.4
20260905134004 44 221 0.0 0.0 0.00 0.00 0.00 84 1021.3
20260905133504 45 220 0.0 0.0 0.00 0.00 0.00 83 1021.2
20260905133004 45 219 0.0 1.0 0.00 0.00 0.00 85 1021.2
20260905132504 44 243 0.0 0.0 0.00 0.00 0.00 86 1021.1
20260905132005 44 243 0.0 0.0 0.00 0.00 0.00 86 1021.1
20260905131504 43 243 0.0 0.0 0.00 0.00 0.00 87 1021.0
20260905131004 42 243 0.0 0.0 0.00 0.00 0.00 87 1021.0
20260905130504 42 243 0.0 0.0 0.00 0.00 0.00 86 1021.0
20260905125504 43 243 0.0 0.0 0.00 0.00 0.00 87 1021.0
20260905125004 42 243 0.0 0.0 0.00 0.00 0.00 87 1020.9
20260905124004 42 243 0.0 0.0 0.00 0.00 0.00 86 1020.9
20260905123504 42 243 0.0 0.0 0.00 0.00 0.00 86 1020.9
20260905123004 42 305 0.0 0.0 0.00 0.00 0.00 86 1020.9
20260905122504 42 352 0.0 0.0 0.00 0.00 0.00 86 1020.9
20260905122004 42 355 0.0 0.0 0.00 0.00 0.00 86 1020.8
20260905120504 43 355 0.0 0.0 0.00 0.00 0.00 85 1020.8
20260905120004 43 355 0.0 0.0 0.00 0.00 0.00 83 1020.8
20260905115503 44 351 0.0 0.0 0.00 0.00 0.00 82 1020.8
20260905115004 44 351 0.0 0.0 0.00 0.00 0.00 83 1020.8
20260905114504 44 355 0.0 0.0 0.00 0.00 0.00 85 1020.8
20260905113504 43 355 0.0 0.0 0.00 0.00 0.00 84 1020.8
20260905113004 43 355 0.0 0.0 0.00 0.00 0.00 84 1020.7
20260905112004 44 355 0.0 0.0 0.00 0.00 0.00 84 1020.6
20260905111504 44 352 0.0 0.0 0.00 0.00 0.00 84 1020.6
20260905111004 44 0 0.0 0.0 0.00 0.00 0.00 84 1020.6
20260905110504 44 0 0.0 0.0 0.00 0.00 0.00 84 1020.5
20260905105504 44 355 0.0 0.0 0.00 0.00 0.00 84 1020.4
20260905105005 44 355 0.0 0.0 0.00 0.00 0.00 83 1020.4
20260905104503 44 355 0.0 0.0 0.00 0.00 0.00 81 1020.3
20260905104004 45 355 0.0 0.0 0.00 0.00 0.00 77 1020.3
20260905103504 47 338 0.0 0.0 0.00 0.00 0.00 74 1020.3
20260905102504 50 337 0.0 0.0 0.00 0.00 0.00 70 1020.2
20260905102005 50 259 0.0 0.0 0.00 0.00 0.00 71 1020.2
20260905101504 50 259 0.0 0.0 0.00 0.00 0.00 72 1020.2
20260905101004 49 259 0.0 0.0 0.00 0.00 0.00 73 1020.2
20260905100504 49 259 0.0 0.0 0.00 0.00 0.00 72 1020.2
20260905100004 50 259 0.0 0.0 0.00 0.00 0.00 72 1020.2
20260905095504 49 259 0.0 0.0 0.00 0.00 0.00 73 1020.2
20260905095004 49 259 0.0 0.0 0.00 0.00 0.00 73 1020.2
20260905094004 49 259 0.0 0.0 0.00 0.00 0.00 73 1020.1
20260905093503 49 259 0.0 0.0 0.00 0.00 0.00 74 1020.1
20260905093004 49 257 0.0 0.0 0.00 0.00 0.00 75 1020.1
20260905092504 48 257 0.0 0.0 0.00 0.00 0.00 78 1020.2
20260905092004 47 256 0.0 0.0 0.00 0.00 0.00 78 1020.2
20260905091503 47 255 0.0 0.0 0.00 0.00 0.00 78 1020.3
20260905091004 47 255 0.0 0.0 0.00 0.00 0.00 79 1020.2
20260905090504 47 255 0.0 0.0 0.00 0.00 0.00 78 1020.2
20260905090004 47 255 0.0 0.0 0.00 0.00 0.00 78 1020.2
20260905084503 48 254 0.0 0.0 0.00 0.00 0.00 78 1020.2
20260905084004 48 254 0.0 0.0 0.00 0.00 0.00 78 1020.2
20260905083504 48 254 0.0 0.0 0.00 0.00 0.00 79 1020.2
20260905083004 48 254 0.0 0.0 0.00 0.00 0.00 79 1020.2
20260905082503 48 254 0.0 0.0 0.00 0.00 0.00 78 1020.3
20260905082005 48 254 0.0 0.0 0.00 0.00 0.00 78 1020.2
20260905081504 48 253 0.0 0.0 0.00 0.00 0.00 78 1020.3
20260905081004 48 253 0.0 0.0 0.00 0.00 0.00 79 1020.3
20260905080504 48 252 0.0 0.0 0.00 0.00 0.00 79 1020.2
20260905075503 48 251 0.0 0.0 0.00 0.00 0.00 77 1020.3
20260905074504 48 250 0.0 0.0 0.00 0.00 0.00 76 1020.2
20260905074004 48 250 0.0 0.0 0.00 0.00 0.00 76 1020.2
20260905073004 48 250 0.0 0.0 0.00 0.00 0.00 77 1020.3
20260905072503 48 248 0.0 0.0 0.00 0.00 0.00 77 1020.4
20260905072004 47 227 0.0 0.0 0.00 0.00 0.00 77 1020.4
20260905071504 47 215 0.0 0.0 0.00 0.00 0.00 78 1020.4
20260905065503 48 92 0.0 0.0 0.00 0.00 0.00 76 1020.1
20260905065004 48 92 0.0 0.0 0.00 0.01 0.00 76 1020.2
20260905064504 48 92 0.0 0.0 0.00 0.02 0.00 74 1020.2
20260905064003 49 92 0.0 0.0 0.00 0.03 0.00 73 1020.1
20260905063503 49 92 0.0 0.0 0.00 0.04 0.00 73 1019.9
20260905063004 49 91 0.0 0.0 0.00 0.06 0.00 73 1019.9
20260905062504 50 91 0.0 0.0 0.00 0.07 0.00 73 1020.0
20260905062004 50 91 0.0 0.0 0.00 0.08 0.00 73 1020.0
20260905061004 49 91 0.0 0.0 0.00 0.09 0.00 74 1020.0
20260905060504 49 91 0.0 0.0 0.00 0.10 0.00 73 1019.9
20260905060004 49 91 0.0 0.0 0.00 0.11 0.00 75 1019.8
20260905055504 48 91 0.0 0.0 0.00 0.11 0.00 75 1019.7
20260905055004 48 91 0.0 0.0 0.00 0.12 0.00 75 1019.5
20260905054504 49 91 0.0 0.0 0.00 0.12 0.00 73 1019.6
20260905054004 50 91 0.0 0.0 0.00 0.13 0.00 73 1019.6
20260905053503 50 91 0.0 0.0 0.00 0.14 0.00 72 1019.6
20260905053004 49 91 0.0 0.0 0.00 0.15 0.00 73 1019.7
20260905052503 49 91 0.0 0.0 0.00 0.16 0.00 73 1019.7
20260905052004 50 91 0.0 0.0 0.00 0.16 0.00 71 1019.8
20260905051505 50 92 0.0 0.0 0.00 0.17 0.00 70 1019.8
20260905051004 51 92 0.0 0.0 0.00 0.18 0.00 71 1019.8
20260905050004 50 92 0.0 0.0 0.00 0.18 0.00 72 1019.9
20260905045504 50 92 0.0 0.0 0.00 0.19 0.00 72 1019.9
20260905045004 50 92 0.0 0.0 0.00 0.20 0.00 72 1020.0
20260905044504 50 93 0.0 0.0 0.00 0.20 0.00 71 1020.1
20260905044004 51 93 0.0 0.0 0.00 0.21 0.00 70 1020.1
20260905043504 52 93 0.0 0.0 0.00 0.22 0.00 68 1020.2
20260905043004 53 93 0.0 0.0 0.00 0.22 0.00 66 1020.2
20260905042504 53 93 0.0 0.0 0.00 0.22 0.00 66 1020.2
20260905042004 52 93 0.0 0.0 0.00 0.23 0.00 66 1020.3
20260905041503 52 93 0.0 0.0 0.00 0.23 0.00 66 1020.3
20260905041003 53 93 0.0 0.0 0.00 0.24 0.00 66 1020.4
20260905040503 53 93 0.0 0.0 0.00 0.24 0.00 66 1020.3
20260905040004 53 93 0.0 0.0 0.00 0.24 0.00 67 1020.3
20260905035503 53 93 0.0 0.0 0.00 0.25 0.00 67 1020.3
20260905035004 53 93 0.0 0.0 0.00 0.26 0.00 65 1020.3
20260905034004 53 93 0.0 0.0 0.00 0.26 0.00 63 1020.2
20260905033504 54 93 0.0 0.0 0.00 0.26 0.00 63 1020.2
20260905033004 54 93 0.0 0.0 0.00 0.27 0.00 63 1020.2
20260905032504 54 93 0.0 0.0 0.00 0.27 0.00 62 1020.1
20260905031504 54 93 0.0 0.0 0.00 0.27 0.00 62 1020.1
20260905031004 54 93 0.0 0.0 0.00 0.28 0.00 63 1020.1
20260905030504 54 94 0.0 0.0 0.00 0.28 0.00 61 1020.0
20260905030004 54 94 0.0 0.0 0.00 0.28 0.00 61 1020.0
20260905025504 55 94 0.0 0.0 0.00 0.29 0.00 59 1020.1
20260905024504 55 94 0.0 0.0 0.00 0.30 0.00 58 1020.0
20260905024004 56 94 0.0 0.0 0.00 0.30 0.00 57 1019.9
20260905022504 56 94 0.0 0.0 0.00 0.31 0.00 56 1019.8
20260905022005 56 94 0.0 0.0 0.00 0.32 0.00 56 1019.8
20260905021504 56 94 0.0 0.0 0.00 0.32 0.00 55 1019.7